Powrót do katalogu

COSMOS 627 DEB

AktywnyPO
NORAD 45504·DEBRIS·🇷🇺 Russia

Wystrzelony Dec 29, 1973 z Plesetsk Cosmodrome

Loading…

Następne Przeloty (najbliższe 24 godziny)

TLE

ŚwieżeSource: Space-Track

Epoka: Sep 13, 2026, 17:15 UTC

1 45504U 73109C   26256.71927586  .00000148  00000-0  13997-3 0  9999
2 45504  82.9514  52.8184 0032549  78.4866 281.9942 13.74439094636036

Śledź COSMOS 627 DEB w czasie rzeczywistym z AllMySat

Download on the App Store